Wind_Speed
11 10 10 12 12 12 13 13 13 15 13 15 16 11 12 12 9 7 11 17 15 10 13 14 6 17 22 18 12 15 21 23 26 31 29 28 29 27 25 21 18 18 20 20 18 17 17 17 18 19 17 16 16 16 16 17 18 18 17 17 16 16 16 16 13 10 9 11 13 15 16 17 18 17 17 18 18 19 20 20 20 20 21 21 22 21
12 11 10 11 11 12 14 13 11 11 12 15 19 17 15 14 14 13 10 15 18 15 16 17 11 13 19 14 8 14 21 23 26 30 29 27 25 24 23 21 18 18 20 21 21 20 21 21 20 20 18 16 17 17 16 16 17 18 18 18 17 16 17 16 13 9 7 7 9 12 14 16 18 18 19 18 18 18 18 18 18 18 19 20 21 22
12 12 12 13 13 13 14 12 11 13 15 18 23 23 18 18 20 17 15 17 23 21 20 21 16 14 20 19 17 18 20 23 26 29 31 29 24 23 25 23 20 20 21 21 21 21 21 22 21 19 18 17 18 17 16 16 18 18 19 19 17 17 17 16 12 8 6 6 8 11 13 14 16 17 19 19 19 18 18 18 18 17 18 19 20 20
12 13 14 15 14 13 13 13 14 16 17 20 25 27 21 20 20 13 14 22 25 26 25 23 18 14 16 15 18 21 23 26 27 29 32 29 25 26 29 25 21 20 21 21 20 19 20 21 20 19 18 17 17 17 16 17 19 19 19 19 18 18 19 17 12 8 7 6 8 12 14 15 16 17 17 19 19 19 19 18 18 18 18 18 18 19
12 15 16 15 14 13 12 15 16 16 17 19 24 28 23 21 21 14 11 17 21 25 26 26 23 18 16 15 16 21 25 28 30 33 34 28 26 29 30 28 24 22 21 21 21 20 19 18 18 19 18 16 16 18 18 19 19 19 19 19 19 20 21 18 13 8 7 6 8 12 14 15 17 17 17 18 19 19 20 19 19 19 19 18 18 18
12 15 16 15 15 13 11 12 15 15 16 18 20 24 23 23 24 21 18 17 19 23 25 27 26 21 19 20 21 21 21 26 32 34 29 25 26 26 24 25 24 22 22 22 23 21 19 17 17 18 18 17 17 19 21 20 18 19 19 20 22 22 21 18 14 9 7 7 8 12 14 14 15 17 17 18 19 20 20 21 20 19 19 19 19 19
12 16 17 17 16 15 13 11 12 15 16 17 19 21 22 25 27 24 23 21 22 26 27 27 25 21 19 20 23 23 19 21 25 25 20 22 26 22 20 22 22 21 21 22 23 23 22 21 20 19 19 19 19 20 22 21 19 20 20 22 24 22 19 17 15 12 10 8 9 12 15 15 15 15 16 16 17 19 20 21 21 20 20 20 19 19
15 18 18 18 16 15 15 13 13 16 17 17 19 20 21 26 29 27 25 24 25 27 25 23 21 20 18 17 20 21 18 17 19 21 20 23 25 22 20 22 22 22 21 21 22 24 23 22 21 19 19 19 20 21 22 21 20 20 19 21 23 22 19 16 15 15 14 12 10 13 15 16 16 15 16 16 16 17 19 20 20 20 20 20 20 20
18 20 19 19 17 16 16 14 15 17 17 17 17 20 23 24 28 28 27 27 28 27 23 22 22 21 19 18 19 19 17 17 19 21 23 24 26 25 22 22 23 24 24 23 24 23 21 20 20 18 17 17 19 21 23 23 22 20 19 19 21 24 25 21 17 17 19 18 14 14 17 17 17 16 16 16 17 17 18 18 19 19 20 20 20 20
19 21 22 21 20 17 16 16 17 16 15 17 18 20 23 25 26 26 25 27 30 29 25 24 24 25 23 20 18 18 18 19 20 21 24 25 26 26 25 25 26 25 25 25 23 21 19 19 20 20 18 19 21 22 24 25 23 20 19 20 21 24 30 32 27 24 24 24 20 17 18 19 18 17 16 16 17 17 18 18 18 18 19 19 19 19
18 20 20 20 18 14 15 18 20 18 14 16 20 21 22 24 25 25 23 25 28 29 27 24 21 23 25 21 18 18 20 22 22 21 25 26 25 24 25 28 27 24 23 22 22 20 18 19 21 21 20 20 22 24 26 27 27 24 22 22 22 23 30 38 36 32 31 30 25 20 20 21 20 17 16 16 16 17 17 18 18 18 18 19 19 18
16 19 17 16 15 14 16 19 22 22 17 17 21 22 22 23 23 24 24 25 28 27 25 23 20 21 25 23 19 19 19 22 26 26 27 28 26 25 25 25 24 22 22 22 23 22 21 22 24 24 23 23 24 26 28 30 31 31 28 26 25 25 28 35 37 36 36 34 27 22 20 21 21 19 16 15 15 15 16 17 17 17 18 18 18 17
17 20 20 17 15 15 18 20 21 20 18 19 21 21 22 21 21 23 25 27 28 25 22 22 21 22 25 23 20 21 22 23 26 28 29 29 28 25 23 22 22 22 22 24 25 25 26 28 30 29 29 29 29 29 30 32 33 34 35 32 29 28 29 32 34 35 37 34 26 21 20 21 20 18 16 15 14 14 14 15 15 16 16 16 16 16
19 19 19 17 14 14 17 20 21 18 14 14 16 18 19 19 21 22 24 26 26 24 21 21 23 23 23 22 21 22 24 27 28 27 29 30 29 25 22 22 24 24 24 24 25 25 27 30 32 32 33 34 33 32 32 33 32 33 35 34 32 31 32 32 32 32 34 32 25 21 20 20 19 17 17 15 13 12 12 12 13 14 14 14 14 14
18 16 14 13 12 12 13 16 20 19 16 12 13 15 16 18 21 22 23 24 23 24 22 21 23 21 19 21 21 20 22 25 28 28 29 29 27 25 24 24 25 24 23 22 23 25 28 30 31 31 33 35 36 35 35 34 34 35 35 34 32 31 32 34 33 32 30 28 24 21 20 20 18 16 16 15 13 11 10 9 10 11 12 13 13 13
17 14 9 9 13 15 11 12 16 18 18 15 11 10 12 17 21 21 21 21 21 21 19 18 19 17 16 18 17 16 18 21 22 22 23 22 22 23 24 24 24 23 22 23 25 27 29 30 30 31 33 35 36 38 37 35 36 35 30 28 27 26 27 28 29 28 28 28 26 20 17 18 17 15 15 15 12 10 8 7 9 10 11 12 12 13
18 14 9 6 10 14 10 8 12 14 15 16 11 7 12 19 21 21 20 19 20 20 19 17 16 16 16 17 15 16 19 19 20 21 21 22 23 25 26 25 25 25 24 25 27 27 28 28 28 28 30 32 34 36 36 36 36 32 27 27 28 27 27 27 26 25 26 30 28 20 16 17 17 15 14 14 12 10 8 7 9 11 12 12 12 12
20 17 15 13 13 15 12 11 15 16 15 18 16 13 14 17 17 19 19 17 17 18 17 16 17 16 17 18 18 19 19 19 20 23 25 26 26 26 25 23 22 22 22 23 23 24 24 24 24 24 26 28 30 32 35 36 36 34 30 29 30 29 27 25 27 25 25 31 30 20 16 17 17 17 15 12 11 11 10 9 10 12 13 13 12 11
21 18 21 22 21 18 15 14 17 16 14 16 18 17 14 11 11 14 16 15 16 17 16 14 14 14 15 17 18 18 18 18 20 24 25 25 25 23 21 18 18 20 20 20 21 21 21 21 22 22 23 24 26 28 31 34 37 37 34 32 31 31 27 24 25 23 23 29 28 22 20 19 18 19 16 13 11 11 12 13 12 13 14 14 14 13
21 20 24 25 22 19 15 10 11 13 13 13 16 18 14 12 14 14 13 13 14 16 15 14 13 14 15 16 17 18 20 19 20 23 25 25 25 22 20 18 17 19 20 21 22 21 21 22 23 23 23 24 25 26 28 31 33 34 34 33 33 32 29 25 24 21 21 25 25 24 24 22 21 21 19 16 13 13 14 16 16 16 17 17 17 16
22 22 26 26 23 19 13 9 9 13 14 12 13 14 13 13 16 16 15 16 16 17 17 17 17 16 16 17 18 18 19 20 21 22 24 25 24 21 19 15 14 18 21 22 23 22 22 23 24 24 24 25 25 26 27 28 30 31 32 33 33 33 32 28 25 23 23 25 27 27 27 25 24 23 21 19 18 17 17 19 19 18 18 19 20 20
25 25 25 25 24 21 17 16 17 18 17 14 12 14 17 18 17 18 20 21 21 21 20 20 20 18 17 19 20 19 19 21 22 24 26 26 23 23 23 18 16 20 22 22 23 23 24 25 25 26 26 26 26 27 28 28 29 29 30 32 33 34 34 32 29 27 27 29 29 28 27 27 26 24 23 23 23 22 20 20 21 20 19 20 22 23
27 27 23 22 24 23 22 22 21 19 17 15 15 16 19 20 20 20 22 22 21 20 21 21 22 21 21 21 22 21 20 21 22 24 26 26 24 27 29 25 23 24 25 25 26 27 28 28 27 27 28 29 29 29 30 31 31 30 30 31 32 34 35 35 33 31 32 33 33 32 30 27 26 26 26 26 26 24 23 23 23 22 21 22 23 24
25 24 22 22 24 25 24 22 19 17 16 17 19 19 18 20 22 24 24 24 23 21 21 22 23 23 23 23 23 23 22 22 22 23 25 26 27 30 31 31 31 30 28 28 30 31 31 30 29 29 29 30 31 32 33 33 33 32 31 31 32 33 34 36 35 33 31 30 29 30 31 30 29 28 29 29 28 27 25 25 26 26 25 25 24 24
26 24 24 25 25 25 25 23 20 18 19 21 23 24 23 24 27 29 28 27 27 27 27 27 27 27 27 28 28 27 26 27 27 27 28 29 28 29 30 32 33 30 28 30 31 31 31 30 29 29 29 30 32 33 34 34 33 31 31 32 32 32 33 35 36 36 36 33 28 26 28 29 30 30 30 31 31 29 28 28 28 29 29 28 26 25
27 26 26 27 28 27 26 26 25 25 26 27 26 26 27 28 30 31 28 25 25 26 28 28 29 30 30 31 31 29 29 29 29 30 31 30 28 28 30 33 32 30 30 32 33 33 32 31 29 29 30 32 33 33 34 34 33 33 33 33 34 34 34 34 35 36 38 38 36 33 31 32 33 33 33 33 33 32 32 32 32 32 33 31 28 26
28 27 27 28 29 29 29 28 28 28 29 29 28 27 28 30 32 32 29 26 26 27 27 27 29 30 31 33 33 31 31 30 30 32 33 32 31 30 30 31 32 32 32 33 34 34 34 34 33 32 33 33 32 32 34 35 35 35 36 36 37 37 36 36 36 36 37 38 39 39 37 35 35 34 32 32 33 34 35 36 37 37 37 36 33 30
32 31 30 31 31 31 31 31 30 30 30 30 30 30 30 32 33 32 32 31 32 32 31 30 31 33 34 35 35 34 33 32 31 33 34 34 33 30 29 30 31 31 31 31 31 32 34 36 37 38 38 37 34 33 35 36 37 38 39 40 41 42 41 40 39 39 39 39 40 40 39 38 37 35 34 33 34 35 36 38 39 38 37 37 36 36
36 34 34 35 35 35 35 35 35 34 34 34 34 34 34 35 35 34 35 36 36 37 37 36 35 37 38 38 38 38 39 38 36 36 37 38 37 36 36 38 39 39 39 37 35 35 36 37 39 39 40 39 38 37 37 39 41 42 42 43 43 44 45 45 44 43 43 43 42 42 43 43 43 43 41 40 39 39 39 39 39 38 37 37 36 37
37 36 36 37 38 39 39 38 37 37 37 38 37 37 37 37 37 38 40 41 41 42 43 43 42 43 44 44 43 44 44 45 44 43 43 43 43 43 43 44 44 44 45 43 40 39 39 37 37 38 39 40 40 41 41 41 41 42 42 42 42 43 44 45 46 46 46 46 45 45 45 46 47 47 46 45 44 44 44 44 44 43 42 40 39 38
37 36 38 38 38 39 39 39 38 39 40 41 41 41 41 41 41 42 43 44 44 45 47 48 48 48 49 48 47 46 46 46 46 46 46 47 47 47 47 47 47 47 48 47 44 43 41 39 38 39 41 42 42 42 43 42 41 40 40 40 41 41 42 43 45 46 47 48 49 49 49 49 49 49 49 49 48 47 47 48 48 47 46 44 41 41
40 38 38 37 36 37 37 37 38 40 42 43 43 44 44 44 43 43 44 46 47 47 48 48 48 48 48 48 47 46 46 47 47 46 46 46 47 48 49 50 51 51 52 51 50 48 46 45 44 43 44 44 43 43 42 43 43 42 42 42 42 42 42 42 44 45 46 48 50 52 53 52 52 52 52 52 52 52 52 52 52 51 50 48 46 45
44 42 40 39 40 41 41 40 40 41 41 42 43 44 44 44 43 43 44 45 45 45 46 46 46 48 49 48 48 47 46 46 47 48 47 47 48 48 49 48 49 51 51 52 53 52 52 53 53 51 48 44 43 42 42 43 44 44 44 44 44 43 42 43 44 45 46 46 46 47 50 52 53 53 53 53 54 55 56 56 56 55 55 53 52 51
45 45 44 44 46 47 47 46 45 44 43 43 43 43 43 44 43 41 42 43 42 42 43 45 47 48 48 48 48 47 46 45 45 47 48 48 48 49 49 48 48 50 51 50 50 50 53 55 56 55 52 48 45 43 43 45 46 46 45 45 44 43 43 43 44 45 45 44 42 42 44 46 47 48 48 49 50 51 53 54 55 56 56 56 55 55
46 45 44 46 48 49 49 49 47 47 46 45 45 44 44 45 44 42 43 44 43 42 43 46 48 49 49 49 48 48 47 47 47 48 48 47 47 48 49 49 49 50 51 51 51 52 54 56 56 57 55 52 50 48 48 50 50 47 45 44 44 43 44 44 45 45 44 45 45 45 45 44 44 45 46 48 49 50 50 50 51 52 53 54 55 55
44 43 42 45 48 49 49 49 48 48 47 46 47 47 46 47 47 47 47 48 47 46 47 48 49 50 51 51 50 50 49 50 50 50 48 47 47 47 48 49 48 48 49 51 52 53 53 55 56 56 56 55 55 55 55 56 54 51 48 47 46 45 46 46 46 46 46 46 47 48 48 47 47 48 49 51 52 52 51 51 50 50 50 51 53 54
44 43 44 46 48 49 49 49 48 48 47 46 46 47 47 46 47 47 48 49 48 48 48 48 49 49 51 51 51 50 50 50 51 50 49 48 47 47 49 49 48 48 47 48 49 50 51 52 50 49 50 51 52 53 55 55 55 53 51 49 47 45 46 46 47 48 49 49 50 51 51 51 52 52 53 53 53 53 52 51 51 50 50 51 52 53
43 44 46 47 48 49 49 48 48 47 46 45 45 45 45 45 45 47 47 48 48 47 46 46 46 46 47 48 48 48 48 48 49 49 49 49 47 48 49 49 49 49 49 49 50 50 52 52 48 46 46 46 45 46 49 52 54 53 51 50 49 49 50 52 52 52 53 53 53 54 55 55 56 56 55 53 52 52 52 51 51 51 51 51 52 52
42 45 46 46 47 48 47 46 46 45 44 44 43 43 43 43 44 45 46 46 47 47 45 44 43 43 43 43 44 44 45 46 47 47 48 48 48 48 48 48 50 51 52 53 54 54 55 56 55 54 54 52 50 50 51 53 55 55 54 53 53 54 54 54 53 53 53 54 54 55 56 56 56 56 55 53 52 52 52 52 52 52 52 52 52 52
43 45 47 46 46 46 46 45 45 45 46 46 45 45 45 45 45 44 45 46 47 47 47 46 44 44 43 43 44 45 46 47 48 48 49 49 50 50 50 50 51 52 53 53 54 55 57 59 60 61 61 60 60 59 60 61 62 62 62 60 58 57 56 55 56 56 56 56 56 55 56 56 56 56 55 54 53 52 52 52 53 53 54 54 54 54
43 44 43 42 42 41 42 42 43 44 44 44 44 44 44 44 44 43 45 46 46 46 47 47 46 46 46 47 48 49 51 51 52 52 51 51 51 52 52 53 53 54 54 55 55 55 56 59 60 62 63 64 65 65 66 67 68 68 67 65 61 59 58 58 58 58 58 58 57 56 56 56 55 54 54 53 52 51 51 52 52 53 54 54 55 55
38 38 38 37 37 37 37 39 39 39 38 38 39 40 41 41 42 43 45 46 46 47 48 48 49 49 50 50 51 53 54 54 54 53 52 52 52 52 53 54 55 55 55 55 56 56 56 57 58 59 61 62 64 65 67 67 68 68 68 66 63 61 61 61 60 60 59 58 57 56 55 54 53 52 51 51 51 50 49 49 50 51 52 52 52 52
33 33 34 34 35 36 36 37 38 37 38 39 40 41 42 43 45 46 47 48 49 50 50 49 50 51 51 51 51 52 53 53 53 53 53 53 53 52 53 54 55 56 56 56 57 57 58 58 58 58 58 59 61 62 64 65 65 66 66 65 64 63 63 62 62 61 60 58 57 55 54 53 52 51 51 51 50 49 49 48 48 48 49 49 49 50
32 34 35 36 37 37 37 39 40 40 42 43 44 44 45 46 48 48 48 49 50 50 49 48 48 49 49 50 51 52 53 53 54 54 54 54 54 54 54 55 55 56 57 58 59 59 59 60 60 60 60 59 60 60 61 62 63 64 64 64 63 63 63 62 61 60 59 57 56 56 55 54 53 52 51 51 50 49 48 48 47 46 46 46 47 48
35 37 37 38 40 40 39 41 42 43 44 45 45 47 48 48 48 48 48 49 49 48 48 47 47 48 49 51 52 53 54 55 55 55 55 54 54 55 55 55 56 57 58 59 60 60 61 62 62 62 62 61 61 60 61 61 62 62 62 62 62 62 62 61 60 59 58 56 56 56 56 55 54 53 52 51 50 49 48 47 46 45 45 45 46 47
37 38 37 38 40 40 39 42 43 43 44 45 45 46 46 46 46 46 46 47 47 47 48 48 49 49 50 51 52 53 53 54 54 54 54 54 54 53 53 53 54 55 56 57 58 59 61 61 62 62 62 62 62 61 61 62 62 62 62 62 62 62 61 61 60 59 57 56 55 55 55 55 55 53 52 51 50 49 47 46 45 45 45 45 45 45
34 34 34 36 37 37 38 41 41 40 42 43 43 43 43 42 42 43 45 46 47 47 48 49 49 49 49 50 51 51 51 52 52 53 53 53 53 53 53 52 52 52 53 54 55 57 58 59 60 60 61 61 61 62 62 62 62 62 61 61 61 61 61 60 60 58 57 56 55 56 56 56 55 54 52 51 50 48 46 45 45 45 44 44 44 45
29 29 30 32 33 33 36 37 36 36 38 39 40 41 41 41 42 44 45 46 47 48 49 50 50 50 50 50 52 52 51 51 52 52 53 53 53 54 54 53 53 52 52 52 53 55 56 57 58 58 59 59 60 60 61 61 60 59 58 58 59 58 58 58 58 57 57 57 57 57 57 56 55 53 52 51 49 47 46 46 45 44 44 43 44 44
25 26 27 28 29 30 32 32 32 33 36 37 39 41 41 42 43 44 45 46 47 48 49 50 51 51 52 52 53 53 52 52 53 54 53 53 54 55 55 56 55 55 54 54 55 56 56 57 57 57 58 58 58 59 59 59 58 58 57 57 57 57 57 57 57 57 57 57 57 56 55 54 53 52 52 49 48 46 46 45 44 44 44 43 43 43
24 25 26 27 28 30 32 33 33 34 35 37 38 40 41 42 43 44 44 45 46 47 48 49 49 50 51 52 53 53 53 52 53 53 53 53 53 54 54 55 56 56 56 56 57 57 58 58 58 58 58 58 58 59 59 58 58 58 57 57 57 57 56 56 56 56 56 55 54 53 53 51 50 51 50 48 47 47 46 44 43 43 44 43 42 42
24 25 26 27 29 31 33 34 34 35 36 37 38 39 41 42 42 43 44 45 46 46 47 48 49 49 49 50 50 51 51 51 51 51 50 50 51 51 52 53 54 54 54 55 56 57 57 58 59 59 58 59 59 59 58 59 58 58 58 57 57 57 56 55 56 55 54 53 52 52 52 51 50 49 49 48 46 46 46 44 43 44 43 43 42 42
Wind_Direction
234 230 235 238 231 224 220 212 213 232 231 192 190 188 166 169 177 205 266 265 250 250 261 268 225 195 216 231 244 270 276 275 272 269 273 277 276 278 283 283 274 266 266 269 270 270 272 276 277 279 283 287 290 294 296 290 283 280 277 275 274 275 275 273 274 281 289 297 301 301 298 295 290 285 283 284 285 285 285 287 288 287 286 286 286 285
235 225 230 239 237 231 227 229 225 220 221 197 184 194 193 168 170 196 242 268 254 247 245 244 241 214 207 212 241 265 275 281 278 275 277 277 277 281 283 282 277 268 267 268 267 265 267 270 272 273 276 282 287 291 291 285 279 276 272 269 269 270 270 268 269 274 282 291 296 295 293 292 289 284 282 283 284 285 285 287 288 286 285 283 282 282
235 225 227 233 233 235 233 230 222 206 205 200 187 192 200 178 171 189 213 243 253 250 244 245 250 225 205 205 212 229 254 269 272 273 276 278 280 282 278 275 274 270 267 268 270 270 269 271 274 275 278 281 283 283 281 277 275 274 271 268 266 266 267 265 265 271 274 274 276 277 276 277 279 279 279 280 280 281 282 284 286 286 285 283 281 280
234 227 228 235 234 232 234 231 227 218 209 203 193 190 198 193 176 176 216 234 247 249 247 249 251 237 228 228 217 217 236 252 260 263 268 277 281 279 278 278 276 273 274 277 279 275 272 275 279 279 280 281 279 275 273 274 275 275 272 270 269 271 272 268 265 271 277 273 275 275 271 268 271 273 273 276 276 277 278 279 282 284 285 285 283 281
225 231 232 239 242 234 235 234 228 224 216 209 201 194 197 202 187 175 213 238 247 251 253 252 250 244 245 252 233 217 225 239 251 256 261 271 274 275 279 280 277 277 281 283 282 280 278 278 276 272 273 276 274 272 273 276 278 280 278 276 275 277 277 275 275 281 288 288 287 287 283 275 274 273 271 271 272 273 274 274 276 280 282 284 284 283
217 236 246 247 245 238 234 229 220 218 217 213 211 205 202 205 200 193 206 230 242 246 251 254 255 249 241 244 234 226 230 234 243 252 260 268 269 272 281 281 276 275 279 282 284 287 285 278 270 267 269 270 274 277 278 280 283 287 286 280 278 277 275 277 283 289 291 292 294 295 294 288 282 280 275 270 268 268 269 270 271 274 278 281 283 283
230 241 248 248 244 238 237 231 218 219 220 215 214 215 207 203 208 211 214 224 235 241 244 249 253 249 239 233 225 229 238 235 244 258 263 264 268 274 281 281 279 276 278 282 285 285 283 279 277 277 276 275 278 281 282 283 284 287 286 281 280 274 267 272 281 289 295 290 292 299 299 296 292 287 283 277 271 268 266 266 267 270 273 277 279 280
238 246 248 251 249 241 238 235 226 224 224 222 220 222 217 208 211 218 221 225 234 241 243 244 245 244 240 232 227 236 244 238 249 265 263 260 268 275 276 277 280 280 279 280 281 282 283 284 287 286 281 279 280 280 281 282 280 282 283 283 280 269 258 267 277 286 298 297 294 303 304 301 300 296 291 285 277 272 269 267 266 267 271 274 276 277
229 242 250 257 253 241 236 233 234 233 226 224 226 230 231 224 219 220 224 229 236 243 247 248 250 251 247 240 238 247 251 244 247 257 261 262 264 267 267 268 272 275 277 277 277 282 288 296 301 299 290 285 284 281 280 281 280 280 282 283 282 268 257 263 280 290 299 301 298 305 309 307 303 298 291 285 279 275 272 270 268 268 270 272 275 276
229 242 250 256 254 247 242 235 232 235 228 225 229 231 234 237 234 231 230 231 236 244 250 253 256 259 257 250 245 241 232 232 243 251 256 258 259 261 262 265 269 274 277 279 282 287 292 297 300 299 296 293 291 286 283 283 281 277 276 279 283 273 259 259 274 289 298 301 300 302 308 307 301 294 288 282 278 275 273 272 270 269 270 272 273 274
235 244 251 256 257 249 240 233 227 225 218 226 238 240 241 244 243 243 242 239 239 243 249 254 258 260 261 259 253 242 228 226 235 246 250 252 255 256 259 265 272 277 279 280 283 287 290 293 291 288 288 288 286 285 285 285 282 275 270 271 273 274 262 258 267 281 291 295 295 297 303 303 297 291 285 280 276 273 272 272 272 271 271 272 272 273
236 239 247 250 250 242 236 236 237 232 221 222 234 242 246 246 243 242 240 240 241 242 246 253 255 254 256 258 253 248 242 232 228 234 244 249 251 250 251 260 270 278 284 282 279 283 288 289 285 280 278 279 278 281 283 285 284 281 279 277 276 278 273 266 270 279 284 285 285 290 297 297 293 287 282 277 274 272 271 271 272 272 271 271 272 273
232 236 246 246 240 236 233 236 244 244 236 232 234 240 246 245 243 240 235 236 241 244 246 250 249 247 250 253 249 242 241 238 233 234 239 244 250 250 248 255 267 278 282 280 281 288 292 288 284 282 280 278 277 279 280 280 282 284 286 287 284 280 276 273 273 276 278 275 274 283 293 293 288 282 279 274 271 270 270 271 273 274 275 274 274 276
237 239 250 256 253 241 232 233 240 240 239 246 249 250 252 248 243 241 239 239 242 244 247 250 248 248 249 250 247 239 234 234 234 235 236 241 249 252 250 256 265 270 272 275 281 284 284 282 283 285 283 281 279 278 277 279 281 282 282 282 278 273 270 269 269 272 273 266 264 276 287 288 282 275 273 271 268 268 268 273 276 278 281 280 281 281
244 245 244 244 243 239 233 233 233 227 222 231 247 256 260 257 250 245 244 245 247 249 248 249 250 251 249 246 245 244 242 239 237 235 236 241 249 253 256 258 260 264 270 276 276 272 272 274 277 280 280 280 279 277 276 278 280 279 278 277 277 275 271 268 267 270 270 257 251 265 279 282 276 267 267 268 267 267 268 276 283 284 286 286 286 287
239 240 229 217 221 225 230 233 226 218 219 223 233 261 271 262 254 249 249 248 248 249 245 244 253 255 250 249 248 250 256 257 253 248 244 247 252 254 257 260 264 269 273 270 265 265 269 273 275 276 276 276 277 276 276 276 276 277 277 276 278 277 274 273 270 270 267 252 245 256 271 276 273 264 264 267 267 269 271 281 290 290 291 291 291 291
226 216 203 205 223 225 220 213 202 197 214 225 218 232 255 258 256 249 248 247 244 246 244 244 252 257 258 263 265 264 264 263 262 260 259 259 258 259 264 270 274 274 270 263 261 264 268 271 274 276 277 277 276 274 274 272 272 275 277 276 280 278 273 277 279 274 267 253 245 250 264 270 270 265 264 265 268 274 276 283 293 294 293 292 290 290
223 205 194 197 212 229 229 212 200 195 211 224 212 209 234 253 261 252 248 248 246 246 247 247 249 252 257 261 263 264 262 258 259 261 262 262 261 264 270 274 274 270 266 264 265 268 270 271 275 278 281 281 279 276 273 272 272 275 278 277 280 280 274 274 278 277 267 253 245 250 266 267 265 263 263 265 271 277 278 279 287 291 292 289 284 280
226 202 196 198 199 217 229 217 213 219 234 235 218 213 227 243 252 254 255 253 250 251 250 248 248 249 252 257 261 263 258 256 261 263 263 265 267 266 264 262 262 263 266 269 269 269 271 275 279 283 285 286 285 282 277 275 274 276 279 278 279 281 278 275 277 277 265 251 247 257 269 265 261 260 261 265 267 270 275 277 280 283 283 282 277 269
230 206 202 206 205 215 224 211 217 243 257 245 220 217 229 239 240 245 255 257 255 254 253 250 249 247 245 248 254 258 257 256 258 260 263 269 272 268 260 256 258 263 267 269 270 270 274 281 285 286 287 287 286 284 280 278 277 277 279 279 278 280 280 276 275 272 260 251 255 265 264 259 261 263 261 261 258 258 266 269 270 271 272 273 270 267
234 219 210 213 216 223 226 210 214 241 248 235 221 225 236 247 248 246 247 250 252 254 254 252 247 243 245 246 245 247 252 254 253 255 261 266 269 270 266 260 263 272 274 272 272 275 278 282 284 283 285 286 285 284 281 278 279 279 279 278 277 277 278 277 274 268 260 259 264 265 259 258 263 264 261 260 256 255 260 264 266 267 269 271 270 269
235 233 223 219 223 229 234 225 216 223 232 231 228 232 235 238 243 246 245 246 248 250 252 253 250 249 254 257 255 251 249 250 251 252 255 257 261 269 272 265 266 278 279 274 275 279 280 281 281 282 283 284 284 283 282 280 280 279 279 278 277 275 275 275 273 269 266 264 263 260 260 263 264 261 259 258 257 259 262 267 272 272 272 273 273 273
238 240 235 229 228 231 236 235 229 231 241 245 243 239 240 242 245 250 253 253 252 249 249 252 254 254 254 257 261 259 253 250 250 254 258 260 263 272 274 270 269 277 277 273 275 281 282 282 282 282 282 283 282 281 280 280 279 278 278 277 275 274 273 272 271 271 269 267 263 260 261 264 263 261 259 257 257 260 264 269 272 271 268 266 266 269
237 239 239 237 233 233 236 240 243 247 249 249 244 239 242 246 250 254 257 260 263 262 259 261 263 262 259 258 261 264 264 262 261 263 266 267 268 272 272 270 272 275 274 271 275 279 282 282 281 281 281 281 281 280 279 278 276 275 276 276 274 272 270 269 269 270 272 273 272 265 260 261 264 264 262 259 259 262 266 270 271 269 266 263 261 263
235 235 237 238 237 237 239 242 241 236 237 240 238 238 244 248 251 256 259 263 266 262 259 262 263 262 263 264 264 266 268 267 266 267 268 268 267 267 268 272 276 275 270 269 273 276 278 279 278 277 278 278 279 279 278 277 274 272 273 276 276 273 270 268 266 266 267 271 275 273 267 265 266 265 262 261 261 264 269 272 273 272 269 266 264 265
238 241 240 239 239 239 242 247 247 243 245 247 243 244 251 254 256 259 260 262 264 260 260 262 260 260 263 265 265 265 265 264 265 267 268 269 268 266 266 270 272 268 266 269 273 274 274 275 274 273 275 277 278 277 276 275 272 272 273 276 276 275 273 270 267 265 265 264 266 269 270 269 268 266 263 260 259 261 266 269 271 272 271 268 267 267
240 244 244 243 245 245 245 249 252 253 254 254 252 252 255 256 258 262 262 260 261 261 263 264 263 264 266 266 267 266 264 262 264 267 267 268 268 267 267 267 264 263 266 270 272 273 273 274 272 271 273 274 272 270 273 273 272 273 275 277 278 278 276 274 271 269 267 265 264 265 268 269 268 267 264 261 260 262 266 268 268 269 270 268 264 264
252 252 252 252 253 253 251 249 250 252 252 254 255 255 256 257 259 262 265 265 265 265 266 265 265 267 267 266 267 268 265 262 262 264 265 265 264 262 262 263 263 265 270 272 273 275 276 276 274 273 273 272 265 261 264 267 269 271 274 276 277 278 277 276 275 271 269 268 267 267 268 268 267 267 267 266 265 267 270 269 268 271 273 271 264 261
259 259 258 257 256 256 255 252 250 249 249 250 252 253 255 257 258 259 261 262 263 265 265 263 263 263 261 261 263 265 266 265 263 263 264 264 263 260 261 263 265 269 273 273 273 274 276 276 275 273 272 269 266 263 262 262 264 267 270 272 273 273 274 274 274 272 270 269 269 268 268 268 269 270 271 270 269 268 269 269 270 272 275 275 269 264
258 260 259 258 257 256 256 256 255 254 252 251 251 253 255 257 257 258 260 261 263 267 268 267 266 264 262 262 265 265 265 265 265 265 265 264 262 261 261 263 265 267 270 270 271 273 274 273 271 270 270 270 271 270 268 265 265 266 267 268 269 270 270 269 269 269 269 269 269 269 269 270 271 272 273 272 271 270 270 270 271 273 274 275 274 270
257 258 258 257 257 257 257 257 258 257 256 255 254 254 254 255 256 259 262 264 265 266 268 270 269 267 266 267 268 267 266 265 264 263 263 264 265 265 264 264 264 266 267 268 268 269 270 269 267 268 270 271 272 272 270 270 270 269 269 269 268 267 267 265 264 265 265 266 267 267 268 269 270 271 272 273 273 273 272 272 272 273 273 273 271 270
260 261 261 258 258 258 259 260 259 259 260 260 261 260 259 260 261 263 264 266 266 265 266 268 268 267 268 269 268 266 266 266 264 262 260 261 263 265 266 265 266 268 268 268 267 267 266 265 266 268 270 269 269 269 270 271 271 270 270 269 268 267 267 265 263 263 263 264 264 264 263 264 265 267 269 271 272 272 272 273 272 272 272 271 270 269
264 265 265 264 263 263 263 263 263 264 264 264 264 264 265 265 265 265 265 264 264 264 265 266 265 265 267 268 268 268 267 266 265 263 260 259 259 260 262 264 265 267 268 268 268 268 267 266 267 268 268 267 268 269 270 271 271 270 270 270 269 268 268 267 265 264 264 265 265 265 263 262 264 266 267 269 269 270 270 270 271 271 270 270 269 269
265 266 267 267 265 265 265 265 265 266 266 265 264 265 266 266 264 263 262 261 262 263 265 266 267 268 268 269 269 269 268 267 265 264 262 262 262 262 263 262 262 263 264 265 266 266 266 266 266 267 267 267 266 267 269 270 269 268 269 269 269 268 269 268 267 266 265 265 267 268 267 265 266 268 270 271 271 271 270 270 270 270 270 269 269 268
265 266 267 267 265 265 265 264 264 264 263 263 263 264 264 264 264 261 259 259 261 263 265 266 268 270 270 270 270 270 269 268 266 265 264 264 265 265 265 263 261 261 261 261 262 263 265 265 264 265 265 265 265 266 267 267 266 266 266 266 266 266 266 266 266 266 265 265 267 268 268 267 267 270 272 274 274 274 273 271 270 270 270 270 269 269
265 266 264 263 264 264 264 264 263 263 263 263 263 263 262 263 264 264 263 263 263 264 264 265 267 268 268 268 269 269 269 269 268 267 265 264 263 263 262 262 261 261 261 262 264 265 264 264 265 266 266 266 266 267 266 265 264 264 265 264 264 263 263 263 263 263 263 264 265 267 267 267 268 271 273 275 275 274 273 272 271 270 269 269 268 268
263 264 263 263 263 264 264 265 265 264 264 263 263 264 265 265 265 266 268 269 268 268 267 266 266 266 267 267 268 268 268 268 268 268 268 265 262 260 259 260 260 260 259 261 263 263 262 263 265 266 265 265 266 267 267 266 264 263 263 262 261 260 262 263 262 261 262 263 263 264 265 265 266 268 271 272 272 271 271 270 270 269 269 268 268 268
260 261 261 262 264 265 266 266 266 266 266 266 266 266 266 266 266 267 267 268 269 268 267 267 266 265 265 266 266 266 266 266 267 268 268 267 264 262 261 261 260 259 257 257 258 257 257 260 261 260 259 259 261 262 263 263 262 260 260 259 260 262 264 264 263 263 264 265 264 264 265 265 266 268 269 269 267 266 267 267 267 268 268 267 268 268
258 259 260 261 263 266 268 268 269 269 269 268 267 267 267 266 266 266 265 264 264 265 265 265 265 265 265 265 264 263 263 263 264 264 265 265 265 264 263 262 261 259 258 257 257 256 255 256 257 256 256 257 257 257 258 259 260 260 260 262 264 266 267 267 266 266 266 266 266 266 266 266 267 268 268 267 265 263 263 263 264 265 265 265 266 266
258 260 262 264 266 267 269 270 271 271 271 269 268 268 267 267 266 265 264 263 264 265 266 266 265 265 266 265 264 264 263 263 263 264 264 265 265 265 263 261 260 260 259 257 257 256 255 254 254 254 255 255 256 256 257 258 261 262 264 266 267 267 267 268 268 268 268 267 267 267 267 268 267 267 266 265 264 263 262 263 263 263 264 264 264 265
261 262 264 265 266 267 268 268 269 270 270 270 269 268 267 266 266 264 264 265 266 266 267 268 268 267 267 267 266 266 266 266 266 266 265 264 264 264 264 263 262 262 261 260 259 257 255 255 254 254 255 255 255 255 255 256 258 261 263 265 266 265 265 266 267 267 268 268 269 269 269 269 267 265 264 263 262 262 262 263 263 264 265 265 266 267
260 262 263 262 261 262 263 264 265 266 267 267 267 267 266 267 267 266 266 267 267 267 269 270 271 270 270 269 269 268 268 268 267 267 266 264 263 262 263 263 263 263 262 262 261 259 258 256 255 255 255 256 256 256 256 257 258 259 261 262 263 263 263 263 265 266 266 267 268 268 268 267 266 264 263 262 262 261 261 262 263 264 266 267 269 270
252 254 256 258 259 259 259 261 262 264 265 265 266 267 268 269 268 268 269 271 271 272 273 274 273 273 273 272 271 271 270 269 268 267 265 264 263 262 261 261 261 262 262 262 261 261 260 259 257 256 255 255 256 257 258 258 258 259 259 260 261 261 262 263 264 264 265 266 266 266 266 266 264 263 263 263 263 263 263 262 262 263 265 267 269 270
248 248 249 253 257 259 258 260 263 265 267 268 269 270 271 270 270 271 272 274 274 275 276 275 275 275 275 273 272 271 269 268 267 266 264 263 263 262 261 261 260 260 260 260 261 261 260 260 260 259 258 256 256 256 256 257 257 257 258 259 259 260 261 262 262 263 263 264 264 264 264 263 262 263 263 264 264 264 264 265 265 265 266 267 267 268
247 250 252 253 257 259 260 263 266 268 270 272 272 272 271 272 273 275 276 276 276 276 276 274 273 273 272 271 270 269 269 269 268 268 268 266 264 263 262 261 261 260 260 260 260 261 260 260 261 261 260 259 258 258 257 257 257 257 257 257 258 259 260 261 261 262 262 262 263 263 263 262 263 263 263 264 264 264 264 265 266 266 266 266 266 267
248 253 256 257 259 261 263 264 266 269 271 272 273 273 275 277 278 278 277 277 276 275 273 272 271 270 270 270 270 271 271 272 272 272 271 270 269 267 265 263 262 261 261 261 261 261 261 261 261 261 261 261 261 260 259 258 257 257 257 257 257 257 258 259 260 260 261 261 262 262 262 263 263 263 263 263 262 263 263 264 265 266 266 266 267 268
256 258 261 262 263 264 264 264 267 270 271 272 274 276 277 278 277 276 275 275 275 274 274 274 274 273 273 273 272 272 272 272 272 272 272 272 271 271 269 267 265 263 262 261 261 261 261 261 262 262 262 262 262 261 261 260 260 260 260 259 259 259 258 258 259 259 259 260 260 261 261 262 262 262 262 262 262 263 264 264 264 265 266 266 267 268
266 266 265 264 264 265 265 267 270 272 272 273 274 274 274 274 273 274 275 276 277 277 277 278 277 277 276 275 274 274 273 273 272 272 272 272 272 272 271 271 269 267 266 264 263 262 261 261 261 261 262 262 262 262 262 262 262 262 262 261 261 260 260 259 259 258 257 256 256 256 257 259 261 262 262 262 263 263 264 264 265 265 265 265 266 267
272 270 268 268 269 269 270 271 272 271 271 272 272 273 273 273 274 274 275 276 277 277 277 278 277 277 277 276 276 275 275 274 273 273 272 272 272 272 272 272 271 270 269 268 266 265 264 263 262 261 261 261 261 261 261 262 262 262 261 260 259 259 258 258 257 256 256 256 255 255 256 257 259 261 262 262 263 263 263 263 265 266 266 265 265 266
271 272 274 276 277 276 276 275 275 274 273 274 274 275 276 276 276 277 277 276 276 276 276 276 276 276 276 276 276 276 275 274 273 273 273 272 272 272 271 271 271 270 270 269 267 266 265 264 263 262 261 261 260 260 260 260 260 260 260 260 259 258 258 257 257 257 257 257 258 258 258 258 258 259 260 260 261 262 262 262 263 264 265 265 265 265
274 277 279 279 278 277 278 279 280 281 280 279 279 279 279 279 280 279 279 278 278 278 278 277 276 276 277 277 278 278 277 276 275 274 274 273 272 271 270 270 269 269 268 268 267 266 266 265 265 264 263 262 261 260 260 259 259 259 258 258 258 258 258 258 257 258 258 258 259 259 259 259 259 259 259 259 258 259 260 261 261 262 263 264 265 265
Height
5739 5740 5741 5742 5742 5743 5744 5745 5745 5746 5747 5748 5751 5754 5755 5755 5758 5760 5760 5759 5760 5762 5761 5762 5764 5765 5765 5765 5767 5767 5764 5763 5764 5763 5763 5763 5762 5763 5763 5765 5767 5767 5767 5769 5770 5771 5772 5772 5773 5774 5775 5776 5776 5777 5777 5778 5778 5779 5779 5779 5779 5779 5779 5779 5779 5778 5777 5776 5775 5774 5774 5773 5773 5775 5775 5775 5775 5775 5775 5774 5774 5774 5774 5775 5775 5776
5738 5739 5739 5741 5742 5742 5742 5743 5744 5745 5747 5747 5749 5753 5756 5755 5756 5758 5759 5757 5758 5760 5761 5760 5761 5763 5764 5765 5767 5767 5764 5762 5761 5760 5760 5760 5760 5761 5762 5762 5764 5765 5765 5766 5768 5770 5770 5770 5771 5772 5774 5775 5775 5775 5776 5776 5776 5777 5777 5777 5777 5777 5778 5778 5777 5776 5775 5775 5774 5773 5773 5772 5772 5772 5773 5773 5773 5773 5773 5773 5773 5773 5773 5773 5773 5774
5736 5737 5737 5738 5740 5740 5741 5742 5743 5744 5745 5746 5747 5751 5754 5754 5754 5757 5758 5757 5755 5758 5759 5758 5759 5761 5761 5762 5764 5765 5764 5761 5760 5759 5758 5758 5759 5759 5759 5759 5761 5762 5762 5763 5765 5766 5767 5767 5768 5769 5771 5772 5773 5773 5774 5774 5775 5775 5775 5774 5774 5775 5776 5775 5775 5774 5773 5773 5773 5772 5772 5772 5771 5771 5771 5771 5771 5771 5771 5771 5771 5771 5772 5772 5772 5772
5734 5735 5735 5736 5738 5739 5739 5740 5741 5742 5743 5744 5746 5748 5752 5753 5753 5754 5756 5755 5754 5756 5757 5757 5758 5760 5760 5761 5762 5764 5763 5761 5759 5758 5757 5757 5757 5756 5755 5756 5757 5758 5759 5760 5761 5762 5763 5764 5765 5766 5768 5769 5770 5771 5771 5772 5772 5772 5772 5771 5772 5773 5773 5773 5772 5771 5771 5771 5771 5770 5770 5770 5770 5769 5769 5769 5769 5769 5770 5770 5770 5770 5770 5770 5770 5771
5732 5733 5733 5734 5735 5736 5737 5738 5739 5740 5741 5743 5744 5746 5749 5752 5751 5750 5751 5752 5752 5752 5754 5755 5756 5758 5759 5761 5761 5761 5761 5761 5759 5757 5757 5758 5757 5754 5752 5752 5753 5755 5756 5756 5757 5759 5761 5763 5764 5764 5765 5766 5767 5767 5768 5768 5768 5768 5768 5768 5769 5770 5770 5770 5769 5769 5769 5769 5769 5768 5767 5768 5768 5767 5768 5768 5767 5767 5767 5768 5768 5768 5768 5768 5768 5769
5731 5731 5732 5733 5734 5734 5735 5736 5737 5738 5740 5741 5743 5745 5747 5749 5749 5747 5747 5748 5749 5749 5750 5750 5752 5754 5756 5758 5758 5758 5759 5759 5758 5756 5758 5758 5755 5752 5751 5750 5751 5752 5753 5753 5754 5756 5758 5759 5761 5762 5762 5763 5764 5764 5763 5764 5765 5765 5764 5765 5765 5766 5767 5768 5767 5766 5767 5767 5767 5766 5765 5765 5765 5765 5765 5766 5765 5765 5765 5765 5766 5766 5766 5766 5766 5767
5728 5729 5730 5731 5732 5733 5734 5735 5736 5737 5738 5739 5741 5742 5744 5746 5746 5745 5744 5745 5745 5746 5747 5747 5748 5750 5752 5754 5755 5756 5757 5757 5755 5755 5756 5755 5752 5751 5751 5749 5749 5750 5750 5751 5752 5753 5754 5755 5757 5759 5760 5761 5761 5761 5760 5761 5762 5763 5762 5762 5762 5764 5765 5765 5765 5764 5764 5765 5766 5765 5764 5763 5763 5763 5762 5763 5763 5763 5763 5763 5763 5764 5764 5764 5764 5764
5727 5727 5728 5729 5730 5732 5733 5734 5734 5735 5736 5738 5739 5740 5741 5742 5743 5743 5742 5742 5743 5743 5744 5745 5746 5747 5749 5751 5752 5752 5753 5753 5752 5753 5753 5753 5752 5751 5750 5749 5748 5748 5748 5750 5750 5750 5751 5752 5754 5757 5758 5759 5759 5758 5758 5759 5760 5761 5761 5760 5760 5761 5762 5762 5762 5762 5762 5763 5764 5763 5762 5761 5761 5760 5760 5760 5760 5760 5761 5761 5761 5761 5761 5761 5762 5762
5725 5725 5726 5727 5728 5729 5730 5731 5732 5732 5734 5736 5737 5738 5738 5739 5739 5740 5741 5741 5740 5741 5742 5742 5743 5744 5746 5748 5749 5749 5750 5750 5749 5750 5750 5752 5751 5750 5748 5747 5747 5747 5747 5748 5748 5749 5750 5751 5753 5754 5756 5756 5756 5755 5756 5756 5758 5759 5760 5759 5759 5759 5759 5759 5759 5759 5760 5761 5762 5762 5761 5760 5759 5759 5758 5758 5758 5758 5758 5758 5758 5759 5759 5759 5759 5759
5723 5723 5723 5724 5725 5726 5728 5729 5729 5730 5732 5733 5733 5733 5734 5735 5737 5738 5739 5739 5739 5738 5739 5740 5741 5741 5742 5744 5746 5747 5748 5747 5746 5747 5748 5749 5749 5747 5745 5744 5746 5746 5746 5746 5747 5749 5750 5751 5752 5752 5753 5753 5753 5752 5753 5754 5755 5756 5757 5757 5756 5756 5755 5755 5755 5756 5757 5759 5760 5761 5760 5758 5757 5757 5756 5756 5755 5755 5755 5756 5756 5756 5756 5757 5757 5757
5720 5720 5721 5722 5723 5724 5725 5726 5726 5727 5729 5729 5729 5730 5732 5733 5734 5735 5736 5736 5736 5735 5736 5738 5739 5738 5738 5740 5743 5743 5745 5745 5744 5744 5745 5745 5746 5745 5743 5742 5744 5744 5745 5745 5746 5747 5749 5750 5751 5751 5751 5751 5751 5750 5750 5751 5751 5753 5754 5754 5754 5753 5753 5752 5752 5753 5754 5756 5758 5759 5759 5757 5756 5755 5754 5753 5753 5753 5753 5753 5753 5754 5754 5754 5755 5755
5718 5717 5718 5720 5721 5722 5723 5723 5723 5724 5725 5726 5727 5728 5728 5729 5730 5732 5732 5732 5732 5733 5735 5736 5737 5736 5735 5737 5739 5740 5742 5742 5742 5742 5742 5742 5742 5743 5742 5742 5742 5742 5743 5743 5744 5745 5746 5747 5747 5748 5749 5750 5750 5749 5748 5748 5747 5747 5749 5751 5752 5752 5752 5751 5750 5751 5751 5752 5754 5755 5756 5755 5754 5753 5752 5752 5751 5750 5750 5751 5751 5751 5752 5752 5752 5753
5715 5715 5715 5717 5718 5719 5720 5721 5721 5723 5724 5724 5725 5725 5726 5727 5728 5728 5728 5728 5729 5731 5733 5733 5733 5733 5732 5734 5736 5737 5738 5739 5739 5740 5740 5739 5739 5741 5742 5742 5741 5741 5742 5742 5743 5743 5743 5742 5743 5744 5745 5746 5747 5747 5746 5745 5745 5745 5746 5748 5750 5749 5748 5748 5747 5747 5747 5748 5750 5751 5752 5753 5752 5751 5750 5750 5750 5749 5748 5748 5749 5749 5749 5750 5750 5750
5712 5713 5714 5715 5717 5718 5718 5718 5719 5721 5722 5723 5723 5723 5724 5724 5725 5725 5725 5726 5727 5728 5730 5730 5730 5730 5731 5732 5732 5733 5734 5734 5735 5736 5737 5737 5737 5739 5741 5741 5740 5741 5742 5743 5743 5743 5742 5741 5740 5740 5741 5741 5743 5744 5743 5744 5744 5744 5742 5743 5744 5745 5744 5743 5743 5743 5743 5744 5746 5748 5749 5750 5750 5750 5749 5748 5748 5748 5747 5747 5747 5747 5748 5748 5748 5748
5710 5711 5712 5713 5714 5715 5716 5716 5717 5718 5719 5719 5720 5721 5721 5721 5721 5722 5723 5724 5725 5725 5727 5727 5727 5728 5729 5729 5729 5730 5731 5730 5730 5732 5733 5734 5735 5736 5737 5738 5739 5740 5742 5742 5741 5741 5740 5740 5740 5739 5738 5738 5738 5740 5740 5741 5740 5739 5739 5739 5739 5740 5741 5740 5740 5740 5741 5742 5742 5744 5746 5747 5748 5748 5747 5747 5747 5747 5746 5745 5746 5746 5746 5746 5746 5746
5708 5710 5711 5712 5712 5712 5714 5714 5715 5717 5717 5717 5718 5719 5720 5719 5719 5720 5721 5721 5722 5723 5724 5725 5725 5726 5726 5726 5727 5728 5728 5728 5728 5729 5731 5732 5733 5732 5733 5735 5737 5738 5740 5739 5738 5737 5737 5737 5738 5738 5736 5736 5736 5735 5736 5736 5735 5735 5737 5736 5735 5737 5738 5738 5738 5738 5739 5739 5738 5740 5743 5744 5746 5747 5746 5746 5746 5745 5745 5744 5744 5744 5745 5745 5745 5745
5706 5708 5709 5710 5710 5711 5712 5713 5713 5716 5716 5716 5717 5718 5718 5717 5717 5718 5718 5719 5719 5720 5722 5723 5724 5724 5724 5724 5725 5726 5726 5726 5726 5727 5728 5729 5729 5729 5730 5732 5734 5734 5735 5735 5734 5734 5734 5735 5735 5735 5733 5733 5732 5732 5731 5731 5731 5732 5733 5732 5732 5733 5735 5735 5735 5735 5736 5736 5736 5737 5739 5741 5743 5744 5744 5745 5744 5744 5744 5743 5743 5743 5743 5743 5743 5743
5703 5706 5706 5707 5709 5710 5711 5712 5712 5712 5713 5714 5716 5716 5715 5715 5715 5716 5716 5717 5718 5718 5719 5721 5722 5722 5722 5723 5723 5723 5723 5723 5723 5724 5724 5724 5725 5726 5727 5729 5730 5729 5730 5730 5730 5731 5731 5731 5732 5732 5731 5729 5728 5728 5727 5726 5726 5727 5728 5729 5729 5730 5732 5733 5732 5732 5733 5733 5734 5735 5736 5738 5740 5741 5742 5743 5743 5742 5741 5741 5741 5741 5741 5741 5741 5741
5700 5704 5704 5704 5706 5707 5708 5710 5711 5711 5711 5713 5714 5713 5713 5714 5714 5714 5714 5715 5716 5716 5717 5719 5720 5720 5720 5720 5720 5720 5720 5720 5719 5719 5720 5720 5721 5723 5725 5726 5726 5726 5726 5727 5727 5728 5728 5728 5729 5729 5728 5727 5726 5725 5724 5723 5722 5722 5723 5725 5726 5726 5728 5729 5729 5730 5731 5731 5732 5733 5734 5735 5736 5738 5740 5741 5741 5740 5739 5738 5739 5739 5738 5738 5738 5739
5698 5701 5701 5702 5704 5704 5705 5707 5709 5710 5710 5711 5712 5712 5712 5712 5712 5712 5713 5713 5714 5714 5715 5716 5717 5717 5717 5718 5718 5718 5718 5718 5717 5715 5716 5716 5717 5720 5722 5723 5723 5723 5723 5724 5724 5724 5725 5725 5726 5726 5726 5725 5724 5723 5722 5721 5720 5719 5719 5720 5722 5723 5723 5725 5726 5727 5728 5728 5729 5730 5731 5732 5733 5735 5737 5738 5738 5737 5736 5735 5735 5736 5736 5736 5736 5736
5696 5698 5699 5700 5702 5703 5704 5705 5707 5708 5708 5709 5709 5710 5710 5710 5710 5711 5711 5710 5711 5711 5712 5713 5713 5714 5714 5714 5715 5715 5715 5715 5714 5712 5712 5713 5714 5716 5717 5719 5720 5720 5720 5720 5721 5721 5722 5722 5722 5723 5723 5723 5722 5721 5720 5719 5718 5717 5717 5717 5718 5719 5720 5721 5723 5725 5725 5726 5727 5728 5729 5730 5731 5732 5733 5734 5735 5734 5734 5733 5732 5733 5734 5734 5733 5733
5692 5694 5697 5699 5700 5702 5703 5703 5703 5705 5706 5706 5707 5708 5707 5707 5707 5708 5709 5708 5708 5709 5709 5710 5710 5712 5712 5712 5712 5713 5713 5712 5711 5709 5708 5709 5712 5712 5713 5715 5717 5717 5717 5717 5717 5718 5719 5719 5719 5720 5720 5720 5720 5719 5718 5717 5717 5716 5716 5715 5716 5716 5717 5718 5720 5721 5722 5723 5725 5725 5725 5727 5728 5729 5730 5730 5731 5731 5731 5731 5731 5732 5733 5733 5732 5732
5689 5691 5695 5698 5699 5699 5700 5700 5701 5703 5704 5704 5704 5705 5705 5705 5705 5705 5706 5706 5706 5707 5707 5707 5708 5709 5710 5709 5708 5709 5709 5708 5707 5706 5705 5706 5709 5709 5709 5711 5713 5713 5714 5714 5714 5715 5715 5716 5716 5716 5716 5717 5717 5717 5716 5715 5715 5715 5715 5714 5714 5714 5715 5716 5718 5719 5719 5719 5721 5721 5722 5723 5724 5725 5726 5726 5726 5727 5728 5729 5729 5729 5730 5731 5731 5730
5688 5689 5692 5694 5695 5696 5697 5699 5700 5701 5701 5700 5701 5701 5702 5703 5702 5702 5702 5702 5704 5705 5704 5704 5705 5705 5706 5705 5705 5706 5706 5705 5703 5703 5703 5703 5704 5705 5705 5706 5708 5709 5710 5710 5710 5711 5711 5712 5712 5713 5713 5713 5713 5713 5713 5713 5712 5711 5711 5712 5712 5713 5713 5714 5715 5716 5716 5717 5717 5717 5717 5719 5720 5721 5722 5722 5723 5723 5724 5725 5725 5726 5727 5727 5727 5728
5685 5686 5688 5689 5691 5693 5694 5695 5696 5696 5695 5696 5696 5697 5698 5698 5698 5698 5700 5700 5701 5702 5701 5702 5702 5701 5701 5701 5701 5703 5703 5701 5700 5700 5700 5700 5700 5700 5701 5701 5702 5703 5705 5705 5706 5707 5707 5708 5709 5708 5709 5709 5709 5710 5710 5709 5709 5709 5708 5708 5709 5709 5710 5711 5712 5712 5713 5715 5715 5714 5713 5714 5716 5717 5718 5719 5719 5720 5720 5721 5721 5722 5723 5724 5724 5725
5681 5682 5684 5685 5687 5689 5691 5691 5691 5692 5692 5693 5693 5694 5694 5694 5694 5695 5697 5698 5698 5698 5698 5699 5699 5697 5697 5697 5697 5699 5700 5698 5697 5696 5697 5697 5697 5697 5697 5697 5697 5698 5699 5700 5701 5702 5703 5704 5705 5705 5705 5705 5705 5706 5706 5706 5706 5706 5706 5705 5705 5706 5706 5707 5708 5709 5710 5711 5711 5711 5710 5711 5712 5713 5713 5714 5715 5716 5716 5717 5717 5718 5719 5720 5721 5721
5678 5679 5680 5681 5683 5685 5687 5687 5687 5688 5689 5690 5691 5691 5691 5690 5690 5691 5693 5694 5694 5694 5695 5695 5694 5694 5694 5693 5693 5695 5696 5695 5694 5692 5692 5693 5694 5695 5694 5693 5691 5692 5694 5695 5695 5696 5698 5699 5701 5701 5702 5702 5702 5702 5702 5702 5702 5702 5702 5702 5702 5703 5703 5703 5704 5705 5705 5705 5706 5707 5707 5709 5709 5709 5709 5710 5711 5712 5713 5713 5713 5714 5715 5716 5717 5718
5673 5675 5677 5678 5679 5680 5682 5683 5684 5684 5685 5686 5687 5688 5688 5687 5687 5687 5688 5689 5689 5689 5692 5691 5690 5691 5690 5688 5688 5690 5691 5692 5691 5689 5688 5689 5690 5691 5691 5689 5687 5687 5689 5690 5691 5692 5693 5694 5695 5696 5697 5698 5699 5699 5699 5698 5698 5698 5698 5698 5698 5698 5699 5700 5700 5700 5701 5701 5702 5703 5704 5705 5705 5704 5704 5705 5706 5707 5708 5709 5709 5709 5710 5711 5712 5713
5669 5670 5672 5673 5674 5675 5675 5676 5678 5679 5680 5682 5682 5683 5683 5683 5684 5684 5683 5683 5682 5683 5685 5685 5685 5685 5683 5682 5684 5685 5686 5687 5687 5685 5684 5684 5685 5687 5687 5686 5684 5683 5684 5685 5687 5688 5689 5689 5688 5689 5690 5692 5694 5695 5696 5696 5695 5694 5694 5694 5694 5694 5694 5695 5695 5695 5696 5697 5698 5698 5699 5699 5698 5698 5699 5701 5702 5703 5703 5704 5704 5705 5705 5706 5707 5708
5665 5664 5665 5668 5669 5669 5670 5671 5672 5674 5675 5677 5678 5679 5678 5678 5678 5678 5678 5678 5678 5678 5678 5678 5679 5678 5676 5677 5680 5680 5681 5682 5682 5682 5680 5679 5679 5680 5682 5682 5681 5680 5679 5680 5682 5683 5684 5684 5683 5683 5684 5685 5687 5688 5690 5691 5691 5690 5690 5690 5690 5690 5689 5690 5690 5690 5690 5691 5692 5693 5694 5694 5694 5694 5695 5696 5697 5698 5699 5699 5699 5700 5700 5701 5702 5703
5659 5659 5660 5663 5664 5665 5666 5667 5668 5668 5668 5671 5673 5673 5672 5672 5673 5674 5673 5673 5674 5674 5673 5673 5672 5670 5669 5673 5675 5675 5676 5677 5678 5678 5676 5674 5674 5674 5676 5677 5677 5676 5674 5675 5677 5678 5678 5678 5678 5678 5679 5680 5681 5681 5682 5684 5685 5684 5684 5684 5685 5685 5685 5685 5685 5685 5686 5686 5687 5688 5689 5689 5689 5690 5690 5691 5692 5693 5693 5694 5694 5694 5695 5696 5696 5697
5653 5653 5655 5658 5659 5659 5660 5661 5662 5661 5663 5665 5666 5665 5666 5668 5669 5670 5669 5668 5667 5667 5667 5667 5666 5663 5664 5667 5668 5669 5671 5671 5671 5672 5672 5670 5669 5668 5669 5670 5671 5670 5670 5670 5671 5672 5673 5673 5673 5674 5674 5675 5676 5676 5676 5677 5678 5677 5677 5678 5678 5679 5680 5680 5681 5681 5681 5682 5682 5683 5683 5684 5684 5685 5685 5686 5686 5687 5688 5688 5689 5689 5689 5690 5691 5691
5647 5648 5650 5652 5653 5653 5654 5655 5656 5656 5659 5660 5658 5658 5660 5663 5664 5664 5663 5660 5659 5660 5662 5661 5658 5657 5659 5661 5662 5664 5665 5665 5664 5664 5664 5665 5665 5664 5664 5664 5664 5664 5663 5663 5664 5666 5666 5666 5667 5668 5669 5670 5671 5671 5671 5671 5672 5671 5671 5672 5672 5673 5674 5675 5675 5676 5676 5676 5677 5677 5678 5679 5679 5680 5680 5681 5681 5681 5681 5682 5682 5683 5683 5683 5684 5685
5642 5643 5645 5646 5646 5646 5647 5649 5651 5652 5654 5653 5651 5653 5655 5655 5657 5658 5655 5652 5652 5655 5657 5654 5651 5652 5654 5655 5656 5657 5658 5659 5657 5655 5656 5659 5660 5660 5660 5659 5658 5658 5657 5658 5658 5658 5658 5659 5660 5661 5663 5665 5666 5666 5666 5665 5665 5665 5665 5666 5667 5667 5668 5668 5668 5669 5670 5670 5671 5671 5672 5673 5673 5674 5674 5674 5674 5674 5675 5675 5674 5675 5675 5676 5676 5677
5637 5639 5640 5639 5638 5638 5640 5642 5644 5646 5647 5646 5646 5648 5648 5647 5649 5650 5648 5647 5649 5651 5651 5647 5645 5646 5648 5648 5649 5650 5651 5651 5648 5647 5651 5654 5655 5654 5654 5653 5653 5652 5652 5652 5652 5652 5652 5652 5653 5653 5656 5658 5659 5659 5660 5659 5658 5660 5661 5662 5663 5662 5662 5662 5663 5663 5664 5665 5665 5665 5666 5667 5668 5668 5668 5668 5668 5668 5667 5668 5667 5667 5668 5668 5668 5669
5631 5633 5633 5632 5631 5631 5633 5634 5637 5639 5639 5639 5639 5641 5642 5641 5642 5642 5640 5640 5644 5645 5643 5641 5640 5641 5641 5642 5643 5644 5644 5641 5639 5641 5646 5648 5648 5648 5645 5645 5647 5648 5647 5646 5646 5647 5646 5646 5646 5647 5649 5651 5651 5651 5651 5651 5652 5654 5655 5656 5657 5657 5656 5657 5658 5658 5659 5659 5659 5659 5661 5662 5662 5662 5662 5662 5662 5661 5661 5661 5661 5661 5662 5662 5662 5663
5626 5626 5626 5625 5625 5625 5626 5627 5630 5631 5631 5632 5633 5634 5635 5635 5635 5635 5633 5633 5636 5637 5635 5635 5635 5635 5635 5636 5636 5637 5637 5634 5632 5635 5638 5640 5641 5640 5637 5638 5642 5642 5642 5642 5642 5641 5640 5639 5641 5641 5641 5642 5643 5642 5642 5643 5645 5647 5647 5648 5650 5651 5651 5651 5652 5652 5653 5654 5654 5654 5655 5657 5656 5656 5656 5656 5656 5656 5655 5655 5655 5655 5656 5656 5656 5657
5620 5619 5619 5620 5619 5618 5620 5621 5622 5624 5624 5625 5626 5627 5628 5628 5628 5628 5627 5626 5627 5628 5627 5627 5629 5628 5629 5630 5630 5629 5629 5628 5627 5628 5630 5631 5633 5633 5632 5633 5635 5635 5635 5635 5635 5636 5635 5635 5636 5635 5633 5635 5637 5636 5636 5636 5636 5638 5639 5641 5642 5644 5644 5645 5645 5645 5646 5647 5648 5648 5649 5650 5650 5650 5650 5649 5649 5650 5649 5649 5649 5649 5649 5650 5650 5650
5614 5612 5613 5615 5614 5613 5614 5615 5616 5617 5617 5618 5620 5620 5621 5621 5620 5620 5619 5619 5619 5619 5620 5621 5621 5622 5622 5623 5623 5622 5622 5621 5621 5622 5623 5623 5624 5626 5626 5627 5626 5625 5626 5627 5627 5629 5630 5630 5629 5627 5627 5629 5631 5631 5630 5629 5628 5629 5631 5633 5635 5636 5636 5637 5638 5639 5639 5640 5641 5641 5641 5642 5642 5642 5642 5642 5642 5643 5643 5643 5642 5642 5643 5643 5644 5644
5607 5607 5608 5610 5610 5609 5609 5609 5609 5610 5610 5611 5612 5612 5612 5613 5614 5613 5611 5611 5612 5613 5612 5613 5615 5615 5615 5615 5615 5615 5614 5613 5614 5615 5616 5616 5616 5617 5619 5618 5617 5616 5617 5618 5619 5620 5621 5620 5619 5619 5620 5621 5622 5623 5623 5622 5622 5622 5623 5625 5627 5628 5628 5629 5630 5630 5630 5631 5633 5633 5633 5634 5634 5635 5634 5634 5635 5636 5636 5636 5635 5635 5636 5636 5636 5637
5601 5602 5603 5604 5604 5604 5604 5604 5603 5603 5603 5603 5604 5605 5605 5605 5606 5605 5603 5604 5606 5606 5605 5606 5607 5607 5607 5607 5607 5606 5606 5606 5607 5608 5609 5609 5609 5609 5610 5610 5609 5607 5607 5608 5609 5610 5611 5610 5611 5611 5611 5611 5612 5613 5613 5614 5614 5614 5614 5616 5619 5620 5621 5621 5621 5621 5622 5623 5624 5625 5625 5625 5625 5626 5626 5627 5628 5629 5629 5629 5628 5628 5628 5629 5629 5630
5596 5597 5597 5599 5599 5599 5599 5598 5598 5597 5597 5598 5598 5597 5597 5599 5598 5597 5596 5597 5598 5598 5598 5599 5599 5598 5598 5598 5598 5598 5598 5598 5599 5600 5601 5601 5601 5601 5601 5601 5600 5599 5598 5598 5599 5600 5600 5601 5602 5603 5603 5603 5603 5603 5604 5605 5607 5607 5607 5608 5610 5611 5612 5612 5613 5613 5614 5615 5616 5617 5617 5617 5617 5618 5618 5619 5620 5621 5622 5622 5622 5622 5622 5622 5623 5624
5592 5592 5592 5592 5593 5594 5594 5593 5592 5592 5592 5592 5591 5591 5592 5592 5590 5589 5590 5591 5590 5590 5592 5592 5591 5590 5590 5590 5589 5589 5589 5590 5590 5590 5591 5590 5590 5591 5592 5592 5591 5590 5589 5589 5589 5589 5590 5590 5592 5593 5594 5594 5594 5594 5594 5595 5597 5598 5598 5600 5602 5602 5603 5604 5605 5605 5606 5607 5608 5609 5609 5609 5609 5610 5610 5611 5612 5613 5614 5615 5616 5616 5617 5617 5617 5618
5587 5587 5588 5587 5587 5589 5589 5587 5587 5588 5586 5585 5585 5586 5585 5584 5583 5584 5585 5584 5583 5583 5584 5584 5583 5582 5582 5581 5580 5579 5579 5579 5579 5579 5580 5580 5580 5580 5581 5582 5581 5581 5580 5579 5579 5579 5580 5580 5581 5582 5583 5584 5585 5585 5585 5585 5586 5588 5589 5591 5592 5593 5594 5595 5596 5597 5598 5600 5601 5601 5602 5602 5602 5602 5603 5604 5604 5605 5606 5607 5609 5610 5611 5611 5611 5611
5581 5581 5583 5583 5582 5584 5584 5582 5581 5582 5580 5579 5579 5578 5577 5577 5578 5579 5579 5577 5576 5576 5576 5575 5575 5574 5572 5571 5570 5569 5568 5568 5569 5569 5570 5570 5570 5570 5571 5572 5572 5571 5571 5570 5570 5570 5570 5570 5570 5571 5572 5574 5575 5575 5575 5575 5576 5577 5580 5581 5583 5583 5585 5586 5587 5589 5590 5591 5592 5593 5593 5593 5594 5595 5596 5597 5597 5598 5599 5600 5601 5603 5604 5604 5604 5604
5576 5576 5579 5579 5577 5580 5580 5577 5575 5576 5575 5574 5572 5571 5571 5573 5574 5573 5571 5569 5568 5568 5566 5566 5566 5565 5564 5562 5561 5561 5561 5560 5560 5560 5560 5560 5560 5560 5561 5561 5562 5562 5561 5561 5561 5560 5559 5559 5560 5561 5562 5563 5564 5565 5565 5566 5566 5568 5570 5572 5573 5574 5575 5576 5578 5580 5582 5583 5584 5584 5585 5585 5586 5587 5588 5589 5590 5591 5592 5594 5595 5595 5596 5597 5597 5597
5572 5574 5575 5574 5573 5574 5573 5570 5571 5573 5571 5569 5567 5566 5567 5568 5566 5564 5563 5561 5560 5559 5558 5557 5558 5558 5557 5555 5553 5553 5554 5553 5552 5551 5551 5551 5551 5550 5550 5551 5552 5552 5552 5552 5552 5551 5550 5550 5551 5552 5552 5553 5554 5554 5555 5555 5557 5559 5562 5563 5564 5565 5566 5568 5569 5572 5574 5575 5576 5576 5576 5577 5578 5579 5580 5581 5582 5584 5586 5587 5587 5588 5589 5590 5590 5591
5568 5569 5570 5569 5569 5569 5567 5565 5568 5569 5566 5564 5563 5562 5561 5560 5559 5557 5555 5554 5553 5552 5551 5550 5549 5549 5548 5547 5545 5545 5545 5545 5543 5543 5543 5542 5542 5541 5540 5541 5541 5542 5543 5543 5543 5542 5541 5541 5541 5542 5543 5543 5544 5544 5544 5546 5548 5551 5553 5554 5555 5556 5558 5559 5560 5562 5564 5565 5566 5567 5568 5570 5571 5572 5573 5574 5576 5578 5579 5579 5580 5581 5582 5583 5583 5584
5564 5564 5563 5563 5563 5563 5562 5562 5563 5563 5560 5559 5557 5555 5554 5553 5552 5551 5550 5548 5547 5546 5544 5542 5541 5540 5539 5538 5537 5536 5536 5536 5535 5534 5534 5534 5533 5532 5531 5531 5531 5532 5532 5532 5532 5531 5531 5531 5532 5532 5533 5534 5535 5535 5535 5536 5539 5541 5542 5544 5545 5546 5548 5549 5550 5552 5553 5554 5557 5559 5561 5563 5565 5565 5565 5567 5569 5570 5571 5573 5574 5574 5575 5576 5577 5577
5559 5559 5559 5559 5558 5557 5556 5556 5556 5555 5554 5553 5551 5549 5548 5546 5546 5545 5544 5542 5540 5539 5537 5536 5534 5532 5531 5529 5528 5528 5528 5527 5526 5525 5525 5525 5524 5523 5522 5522 5521 5522 5522 5521 5521 5520 5520 5520 5521 5522 5523 5524 5524 5525 5526 5527 5529 5531 5532 5533 5535 5536 5538 5540 5541 5543 5544 5546 5549 5551 5553 5555 5557 5557 5557 5560 5562 5562 5563 5566 5567 5568 5568 5569 5570 5571
5556 5556 5555 5554 5553 5551 5550 5549 5549 5548 5547 5546 5544 5543 5541 5540 5539 5538 5536 5534 5533 5531 5529 5528 5526 5525 5524 5522 5520 5519 5518 5518 5517 5516 5516 5515 5515 5514 5513 5512 5512 5512 5511 5510 5510 5510 5510 5509 5510 5511 5513 5513 5514 5515 5516 5517 5519 5521 5522 5523 5524 5526 5528 5530 5532 5534 5537 5539 5541 5543 5544 5546 5548 5548 5550 5553 5555 5555 5556 5558 5560 5561 5562 5563 5564 5565